Starlink 1762

operational
NORAD ID: 46342 Int'l Des: 2020-062 Owner: SPXS Country: US Constellation: starlink
LEOCIRCULARSTARLINK_TYPE

Starlink 1762について

説明を読み込み中...

リアルタイム位置

3D地球を読み込み中...

次回通過

高度履歴

Altitude vs Time

uPlot chart will show altitude changes over time

軌道要素

1 46342U 20062T 25303.54062740 .00013199 00000-0 90302-3 0 9990
2 46342 53.0533 240.8791 0001680 99.7069 260.4110 15.06412135284697
Epoch: Oct 30, 2025 • Age: 21 hours

現在のステータス

高度 547.1 km
速度 7.59 km/s
衛星直下点 14.19°N, 61.64°E
打ち上げ日 Sep 3, 2020
運用期間 5.1 years
タイプ internet

技術仕様

分類 Payload
質量 260.00 kg
乾燥質量 248.00 kg
総質量 260.00 kg
長さ 0.20 m
直径 2.80 m
スパン 9.00 m
形状 Box + pan
製造者 SPXS
バスタイプ Starlink
フェーズステータス In Orbit
所有者/国 SPXS/US

大規模コンステレーション

Loading constellations...